Regional Weather Roundup
Issued by NWS

Home | Current Version | Previous Version | Text Only | Print | Product List | Glossary On
Versions: 1 2 3 4 5 6 7 8 9 10 11 12 13 14 15 16 17 18 19 20 21 22 23 24 25 26 27 28 29 30 31 32 33 34 35 36 37 38 39 40 41 42 43 44 45 46 47 48 49 50
000
ASUS45 KTFX 261510
RWRMT
MONTANA REGIONAL WEATHER ROUNDUP
NATIONAL WEATHER SERVICE GREAT FALLS MT
900 AM MDT MON SEP 26 2016

NOTE: "FAIR" INDICATES FEW OR NO CLOUDS BELOW 12000 FEET WITH NO
SIGNIFICANT WEATHER AND/OR OBSTRUCTIONS TO VISIBILITY.

MTZ001>007-043-261600-
WEST OF THE DIVIDE

CITY           SKY/WX    TMP DP  RH WIND       PRES   REMARKS
KALISPELL      MOSUNNY   41  40  96 CALM      30.37F
MISSOULA       MOSUNNY   45  42  89 CALM      30.42F
BUTTE          CLOUDY    39  37  92 CALM      30.47F
MULLAN PASS    MOSUNNY   49  40  71 S9        30.41S
ANACONDA         N/A     46  41  81 SE7       30.44S
DEER LODGE       N/A     43  37  81 CALM      30.47S
EUREKA           N/A     41  39  93 CALM      30.37R
HAMILTON         N/A     48  43  81 S5        30.41S
LIBBY            N/A     41  39  93 CALM      30.36S
PLAINS           N/A     42  38  86 CALM      30.35F
RONAN            N/A     45  43  93 CALM      30.37S
$$

MTZ008-052>055-261600-
SOUTHWEST MONTANA

CITY           SKY/WX    TMP DP  RH WIND       PRES   REMARKS
BOZEMAN        CLOUDY    48  41  76 S5        30.43S
DILLON         CLOUDY    46  40  79 S9        30.46R
W YELLOWSTONE  CLOUDY    36  32  87 CALM      30.55R
ENNIS          SUNNY     46  41  81 CALM      30.50S
THREE FORKS      N/A     46  24  42 CALM      30.37R
TWIN BRIDGES     N/A     45  38  76 SE7       30.38R
$$

MTZ009-010-012-014-046-048-049-054-261600-
EAST SLOPES AND CENTRAL MONTANA

CITY           SKY/WX    TMP DP  RH WIND       PRES   REMARKS
CUT BANK       MOSUNNY   50  43  77 CALM      30.26F
GREAT FALLS    CLOUDY    53  42  66 S13       30.30F
MALMSTROM AFB  CLOUDY    53  44  73 SW10      30.30S
HELENA         CLOUDY    50  42  74 CALM      30.38S
AUGUSTA          N/A     51  44  75 S3        30.31F
BOWMANS CRNR     N/A     51  43  76 S13       30.31S
CHOTEAU          N/A     54  45  71 SW7       30.30F
CONRAD           N/A     49  49 100 S6        30.26S
FAIRFIELD        N/A     53  43  70 S12       30.29F
POWER            N/A     48  43  81 SW8       30.29F
RAYNESFORD       N/A     50  42  74 NW3       30.32S
$$

MTZ011-013-016-021-045-047-050-051-261600-
NORTH CENTRAL MONTANA

CITY           SKY/WX    TMP DP  RH WIND       PRES   REMARKS
HAVRE          CLOUDY    51  45  79 SW15      30.26S
LEWISTOWN      SUNNY     50  43  77 E3        30.32F
N BAR RANCH      N/A     57  43  58 W6        30.35S
CHINOOK          N/A     48  43  81 CALM      30.26S
DENTON           N/A     52  45  77 S7        30.27F
GEYSER           N/A     51  44  75 S3        30.31F
GRASS RANGE      N/A     56  44  64 W8        30.28F
JUDITH GAP       N/A     54  44  69 W10       30.34F
ROY              N/A     57  46  66 MISG      30.28S
STANFORD         N/A     55  46  71 S5        30.32F
WINIFRED         N/A     54  44  68 MISG      30.30S
$$

MTZ017>020-022>027-061-062-261600-
NORTHEAST MONTANA

CITY           SKY/WX    TMP DP  RH WIND       PRES   REMARKS
GLASGOW        SUNNY     45  39  79 W10       30.25S
JORDAN           N/A     51  44  77 W8        30.27R
SIDNEY         SUNNY     46  41  82 S3        30.24R
WOLF POINT     SUNNY     44  40  85 W7        30.25S
PLENTYWOOD       N/A     45  36  70 W6        30.22S
POPLAR           N/A     43  39  87 SW5       30.25S
SCOBEY           N/A     42  34  73 CALM      30.20S
$$

MTZ028>42-056>058-261600-
SOUTHCENTRAL AND SOUTHEAST MONTANA

CITY           SKY/WX    TMP DP  RH WIND       PRES   REMARKS
BAKER          SUNNY     51  43  74 W9        30.26R
BILLINGS       MOSUNNY   52  42  69 SW13      30.35S
LIVINGSTON     SUNNY     50  41  71 NW12      30.40R
MILES CITY     SUNNY     53  44  71 W12       30.28R
BIG TIMBER     SUNNY     55  41  58 W10       30.39F
EKALAKA          N/A     53  40  61 W9        30.23R
FORSYTH          N/A     52  45  76 W7        30.30S
HARLOWTON        N/A     51  44  75 W9        30.35F
LAUREL           N/A     51  40  66 SW7       30.31S
ROUNDUP          N/A     51  41  69 S9        30.21F
$$

REGIONAL REPORTS...DAKOTAS

CITY           SKY/WX    TMP DP  RH WIND       PRES   REMARKS
WILLISTON      SUNNY     47  38  71 SE3       30.22R
MINOT          SUNNY     54  36  50 W16G22    30.13S
DICKINSON      SUNNY     50  41  71 W12       30.20S
CROSBY           N/A     52  34  50 NW12      30.21S
WATFORD CITY     N/A     50  41  71 CALM      30.22S
BISMARCK       SUNNY     52  36  54 W12       30.17F
GRAND FORKS    SUNNY     55  39  54 W20G28    29.93F
FARGO          SUNNY     57  38  48 W20G28    29.99S
BUFFALO SD       N/A     55  42  61 W13       30.18S
RAPID CITY     SUNNY     61  40  45 W8        30.27F
$$

REGIONAL REPORTS...WYOMING/IDAHO/WASHINGTON

CITY           SKY/WX    TMP DP  RH WIND       PRES   REMARKS
GILLETTE       CLOUDY    54  43  66 W12       30.35R
SHERIDAN       SUNNY     61  44  53 NW8       30.36S
BUFFALO WY     SUNNY     59  40  49 N7        30.40R
CODY           CLOUDY    52  43  71 S5        30.42S
YELLOWSTONE LA   N/A     37  35  92 CALM      30.57S
IDAHO FALLS    SUNNY     43  39  86 N5        30.47R
SALMON         SUNNY     43  39  87 CALM      30.48S
BOISE          SUNNY     59  40  49 SE10      30.33S
SPOKANE        PTSUNNY   52  43  71 NE9       30.28S
$$

REGIONAL REPORTS...ALBERTA

CITY           SKY/WX    TMP DP  RH WIND       PRES   REMARKS
EDMONTON       SUNNY     50  37  62 S5        30.07F
CALGARY        PTSUNNY   55  41  58 S8        30.15F
LETHBRIDGE     PTSUNNY   54  45  71 S15       30.19F
MEDICINE HAT   PTSUNNY   46  43  87 S3        30.19F
WATERTON GATE    N/A     57  41  54 SW21G30     N/A
MILK RIVER       N/A     48  43  81 W6          N/A
ONEFOUR          N/A     50  43  76 SE3         N/A
$$

REGIONAL REPORTS...SASKATCHEWAN

CITY           SKY/WX    TMP DP  RH WIND       PRES   REMARKS
SWIFT CURRENT  SUNNY     50  36  57 W10       30.20R
REGINA         SUNNY     45  37  76 W6        30.18S
SASKATOON      SUNNY     43  37  81 W5        30.18S
CYPRESS HILLS    N/A     54  34  47 SW3         N/A
VAL MARIE        N/A     43  37  81 SW2         N/A
ROCKGLEN         N/A     52  34  50 W8          N/A
$$



USA.gov is the U.S. government's official web portal to all federal, state and local government web resources and services.